This is the latest recevied weather packets stored in our database for station/object K3XY-2. If no packets are shown the sender has not sent any weather packets the latest 10 day(s).
| Time | Temp. | Humidity | Pressure | Rain* | Wind** | Luminosity | Snow |
|---|---|---|---|---|---|---|---|
| 1777686543 | 10.56° C | 69% | 1011.6 hPa | 0 mm | - | - | - |
| 1777685942 | 10.56° C | 67% | 1011.4 hPa | 0 mm | - | - | - |
| 1777685342 | 10.56° C | 65% | 1011.1 hPa | 0 mm | - | - | - |
| 1777684742 | 11.11° C | 63% | 1011.2 hPa | 0 mm | - | - | - |
| 1777684142 | 11.67° C | 61% | 1011 hPa | 0 mm | - | - | - |
| 1777683542 | 12.22° C | 63% | 1010.9 hPa | 0 mm | - | - | - |
| 1777682942 | 12.22° C | 61% | 1010.8 hPa | 0 mm | - | - | - |
| 1777682342 | 12.78° C | 59% | 1010.7 hPa | 0 mm | - | - | - |
| 1777681743 | 13.33° C | 60% | 1010.4 hPa | 0 mm | - | - | - |
| 1777681142 | 13.33° C | 57% | 1010.5 hPa | 0 mm | - | - | - |
| 1777680542 | 13.89° C | 55% | 1010.4 hPa | 0 mm | - | - | - |
| 1777679942 | 14.44° C | 54% | 1010.4 hPa | 0 mm | - | - | - |
| 1777679343 | 14.44° C | 51% | 1010.3 hPa | 0 mm | - | - | - |
| 1777678742 | 15° C | 50% | 1010.2 hPa | 0 mm | - | - | - |
| 1777678142 | 15° C | 49% | 1010.1 hPa | 0 mm | - | - | - |
| 1777677542 | 15° C | 48% | 1010 hPa | 0 mm | - | - | - |
| 1777676943 | 15.56° C | 48% | 1009.9 hPa | 0 mm | - | - | - |
| 1777676342 | 15.56° C | 48% | 1009.7 hPa | 0 mm | - | - | - |
| 1777675742 | 16.11° C | 49% | 1009.6 hPa | 0 mm | - | - | - |
| 1777675142 | 16.11° C | 47% | 1009.7 hPa | 0 mm | - | - | - |
| 1777674543 | 16.67° C | 46% | 1009.7 hPa | 0 mm | - | - | - |
| 1777673943 | 16.67° C | 47% | 1009.8 hPa | 0 mm | - | - | - |
| 1777673342 | 16.67° C | 46% | 1009.9 hPa | 0 mm | - | - | - |
| 1777672742 | 16.67° C | 47% | 1010 hPa | 0 mm | - | - | - |
| 1777672142 | 17.22° C | 45% | 1009.9 hPa | 0 mm | - | - | - |
* Rain latest hour (hover to see other rain measurements)
** Current wind speed in m/s (hover to see current wind gust speed)